Mojave, CA

1:52 AM PDT on September 23, 2019 (GMT -0700)
Mojave

Weather History for KMHV - August, 2019

Change the Weather History Date:

Thursday, August 22, 2019

  Actual Average Record
Temperature  
Mean Temperature 80 °F -  
Max Temperature 93 °F 93 °F 102 °F (1967)
Min Temperature 66 °F 63 °F 55 °F (1968)
Cooling Degree Days 14    
Growing Degree Days 30 (Base 50)    
Moisture  
Dew Point 44 °F    
Average Humidity 27    
Maximum Humidity 43    
Minimum Humidity 15    
Precipitation  
Precipitation 0.00 in - - ()
Sea Level Pressure  
Sea Level Pressure 29.81 in    
Wind  
Wind Speed 15 mph (WNW)    
Max Wind Speed 29 mph    
Max Gust Speed 34 mph    
Visibility 10 miles    
Events      
Averages and records for this station are not official NWS values.
T = Trace of Precipitation, MM = Missing Value Source: NWS Daily Summary

Daily Weather History Graph

Daily Weather History Graph

Search for Another Location

Airport or City:

Astronomy

Aug. 22, 2019 Rise Set
Actual Time 6:17 AM PDT 7:32 PM PDT
Civil Twilight 5:51 AM PDT 7:59 PM PDT
Nautical Twilight 5:19 AM PDT 8:30 PM PDT
Astronomical Twilight 4:47 AM PDT 9:03 PM PDT
Moon 11:41 PM PDT (8/22) 12:42 PM PDT (8/22)
Length of Visible Light 14h 07m
Length of Day
13h 14m
Waning Gibbous, 58% of the Moon is Illuminated
Aug 22
Waning Gibbous
Aug 23
Last Quarter
Aug 30
New
Sep 5
First Quarter
Sep 13
Full

Hourly Weather History & Observations

Time (PDT) Temp. Dew Point Humidity Pressure Visibility Wind Dir Wind Speed Gust Speed Precip Events Conditions
12:00 AM 77.0 °F 46.4 °F 34% 29.85 in 10.0 mi NNW 24.2 mph 33.4 mph N/A   Clear
12:20 AM 77.0 °F 46.4 °F 34% 29.83 in 10.0 mi NW 23.0 mph 34.5 mph N/A   Clear
12:40 AM 77.0 °F 44.6 °F 32% 29.84 in 10.0 mi NNW 11.5 mph 21.9 mph N/A   Clear
1:00 AM 78.8 °F 41.0 °F 26% 29.84 in 10.0 mi Calm Calm 12.7 mph N/A   Clear
1:20 AM 75.2 °F 44.6 °F 34% 29.84 in 10.0 mi NW 4.6 mph 12.7 mph N/A   Clear
1:40 AM 73.4 °F 42.8 °F 33% 29.83 in 10.0 mi NW 8.1 mph - N/A   Clear
2:00 AM 75.2 °F 42.8 °F 31% 29.82 in 10.0 mi WNW 15.0 mph - N/A   Clear
2:20 AM 75.2 °F 46.4 °F 36% 29.82 in 10.0 mi NW 12.7 mph 21.9 mph N/A   Clear
2:40 AM 75.2 °F 44.6 °F 34% 29.82 in 10.0 mi NW 13.8 mph - N/A   Clear
3:00 AM 75.2 °F 44.6 °F 34% 29.82 in 10.0 mi North 8.1 mph 24.2 mph N/A   Clear
3:20 AM 75.2 °F 46.4 °F 36% 29.82 in 10.0 mi WNW 13.8 mph 19.6 mph N/A   Clear
3:40 AM 75.2 °F 48.2 °F 38% 29.81 in 10.0 mi West 11.5 mph 19.6 mph N/A   Clear
4:00 AM 75.2 °F 48.2 °F 38% 29.81 in 10.0 mi NW 18.4 mph - N/A   Clear
4:20 AM 73.4 °F 44.6 °F 36% 29.82 in 10.0 mi North 6.9 mph - N/A   Clear
4:40 AM 69.8 °F 42.8 °F 38% 29.82 in 10.0 mi NW 9.2 mph - N/A   Clear
5:00 AM 71.6 °F 46.4 °F 41% 29.82 in 10.0 mi Calm Calm - N/A   Clear
5:20 AM 71.6 °F 44.6 °F 38% 29.82 in 10.0 mi West 4.6 mph - N/A   Clear
5:40 AM 69.8 °F 46.4 °F 43% 29.82 in 10.0 mi Variable 3.5 mph - N/A   Clear
6:00 AM 68.0 °F 44.6 °F 43% 29.82 in 10.0 mi Calm Calm - N/A   Clear
6:20 AM 66.2 °F 42.8 °F 43% 29.83 in 5.0 mi NNW 10.4 mph - N/A   Haze
6:40 AM 68.0 °F 42.8 °F 40% 29.83 in 9.0 mi NNW 9.2 mph - N/A   Clear
7:00 AM 69.8 °F 42.8 °F 38% 29.84 in 9.0 mi NNW 5.8 mph - N/A   Clear
7:20 AM 75.2 °F 50.0 °F 41% 29.83 in 10.0 mi West 9.2 mph - N/A   Clear
7:40 AM 77.0 °F 42.8 °F 29% 29.84 in 9.0 mi NNW 4.6 mph - N/A   Clear
8:20 AM 78.8 °F 46.4 °F 32% 29.84 in 10.0 mi SSE 5.8 mph - N/A   Clear
8:40 AM 82.4 °F 46.4 °F 28% 29.84 in 10.0 mi WSW 5.8 mph - N/A   Clear
9:00 AM 84.2 °F 46.4 °F 27% 29.84 in 10.0 mi Variable 3.5 mph - N/A   Clear
9:20 AM 84.2 °F 48.2 °F 29% 29.84 in 10.0 mi West 9.2 mph - N/A   Clear
9:40 AM 84.2 °F 50.0 °F 30% 29.84 in 10.0 mi West 11.5 mph - N/A   Clear
10:00 AM 87.8 °F 48.2 °F 25% 29.84 in 10.0 mi WNW 9.2 mph 17.3 mph N/A   Clear
10:20 AM 87.8 °F 48.2 °F 25% 29.84 in 10.0 mi West 13.8 mph - N/A   Clear
10:40 AM 87.8 °F 48.2 °F 25% 29.84 in 10.0 mi West 15.0 mph - N/A   Clear
11:00 AM 89.6 °F 48.2 °F 24% 29.84 in 10.0 mi West 17.3 mph - N/A   Clear
11:20 AM 87.8 °F 48.2 °F 25% 29.84 in 10.0 mi West 20.7 mph - N/A   Clear
11:40 AM 89.6 °F 48.2 °F 24% 29.84 in 10.0 mi West 23.0 mph 29.9 mph N/A   Clear
12:00 PM 89.6 °F 48.2 °F 24% 29.84 in 10.0 mi West 18.4 mph 26.5 mph N/A   Clear
12:20 PM 91.4 °F 48.2 °F 23% 29.83 in 10.0 mi West 18.4 mph 28.8 mph N/A   Clear
12:40 PM 91.4 °F 48.2 °F 23% 29.83 in 10.0 mi West 19.6 mph 27.6 mph N/A   Clear
1:00 PM 91.4 °F 46.4 °F 21% 29.83 in 10.0 mi WNW 21.9 mph - N/A   Clear
1:20 PM 93.2 °F 46.4 °F 20% 29.82 in 10.0 mi WNW 18.4 mph 26.5 mph N/A   Clear
1:40 PM 93.2 °F 42.8 °F 17% 29.82 in 10.0 mi WNW 20.7 mph 28.8 mph N/A   Clear
2:00 PM 93.2 °F 41.0 °F 16% 29.81 in 10.0 mi West 25.3 mph - N/A   Clear
2:20 PM 93.2 °F 39.2 °F 15% 29.80 in 10.0 mi West 28.8 mph - N/A   Clear
2:40 PM 93.2 °F 39.2 °F 15% 29.80 in 10.0 mi West 25.3 mph 32.2 mph N/A   Clear
3:00 PM 93.2 °F 39.2 °F 15% 29.79 in 10.0 mi West 25.3 mph 32.2 mph N/A   Clear
3:20 PM 93.2 °F 39.2 °F 15% 29.78 in 10.0 mi West 20.7 mph 29.9 mph N/A   Clear
3:40 PM 93.2 °F 41.0 °F 16% 29.78 in 10.0 mi West 27.6 mph - N/A   Clear
4:00 PM 93.2 °F 41.0 °F 16% 29.77 in 10.0 mi WNW 26.5 mph - N/A   Clear
4:20 PM 93.2 °F 39.2 °F 15% 29.77 in 10.0 mi WNW 25.3 mph - N/A   Clear
4:40 PM 93.2 °F 41.0 °F 16% 29.77 in 10.0 mi West 23.0 mph 29.9 mph N/A   Clear
5:00 PM 91.4 °F 42.8 °F 18% 29.77 in 10.0 mi West 21.9 mph 29.9 mph N/A   Clear
5:20 PM 91.4 °F 44.6 °F 20% 29.77 in 10.0 mi West 25.3 mph 31.1 mph N/A   Clear
5:40 PM 89.6 °F 42.8 °F 20% 29.77 in 10.0 mi WNW 21.9 mph 29.9 mph N/A   Clear
6:00 PM 89.6 °F 44.6 °F 21% 29.77 in 10.0 mi West 25.3 mph 31.1 mph N/A   Clear
6:20 PM 87.8 °F 44.6 °F 22% 29.77 in 10.0 mi West 20.7 mph 28.8 mph N/A   Clear
6:40 PM 86.0 °F 44.6 °F 23% 29.77 in 10.0 mi West 21.9 mph 34.5 mph N/A   Clear
7:00 PM 86.0 °F 44.6 °F 23% 29.77 in 10.0 mi West 24.2 mph 31.1 mph N/A   Clear
7:20 PM 84.2 °F 44.6 °F 25% 29.77 in 10.0 mi West 21.9 mph 28.8 mph N/A   Clear
7:40 PM 84.2 °F 44.6 °F 25% 29.77 in 10.0 mi West 27.6 mph - N/A   Clear
8:00 PM 82.4 °F 42.8 °F 25% 29.78 in 10.0 mi WNW 23.0 mph 32.2 mph N/A   Clear
8:20 PM 82.4 °F 41.0 °F 23% 29.78 in 10.0 mi WNW 25.3 mph 33.4 mph N/A   Clear
9:00 PM 82.4 °F 35.6 °F 19% 29.79 in 10.0 mi WNW 24.2 mph 32.2 mph N/A   Clear
9:20 PM 82.4 °F 37.4 °F 20% 29.79 in 10.0 mi West 25.3 mph 31.1 mph N/A   Clear
9:40 PM 80.6 °F 37.4 °F 21% 29.80 in 10.0 mi West 20.7 mph 28.8 mph N/A   Clear
10:00 PM 80.6 °F 39.2 °F 23% 29.80 in 10.0 mi West 16.1 mph 24.2 mph N/A   Clear
10:20 PM 80.6 °F 39.2 °F 23% 29.80 in 10.0 mi WSW 18.4 mph 26.5 mph N/A   Clear
10:40 PM 80.6 °F 37.4 °F 21% 29.80 in 10.0 mi WSW 19.6 mph 26.5 mph N/A   Clear
11:00 PM 80.6 °F 35.6 °F 20% 29.80 in 10.0 mi WSW 13.8 mph - N/A   Clear
11:20 PM 78.8 °F 32.0 °F 18% 29.80 in 10.0 mi WSW 12.7 mph - N/A   Clear
11:40 PM 78.8 °F 32.0 °F 18% 29.80 in 10.0 mi WSW 10.4 mph - N/A   Clear